Regional Weather Roundup
Issued by NWS

Home | Current Version | Previous Version | Text Only | Print | Product List | Glossary On
Versions: 1 2 3 4 5 6 7 8 9 10 11 12 13 14 15 16 17 18 19 20 21 22 23 24 25 26 27 28 29 30 31 32 33 34 35 36 37 38 39 40 41 42 43 44 45 46 47 48 49 50
000
ASUS43 KLSX 020359
RWRMO

WEATHER SUMMARY FOR MISSOURI
NATIONAL WEATHER SERVICE SPRINGFIELD MO
1000 PM CST SUN MAR 01 2015

NOTE: "FAIR" INDICATES FEW OR NO CLOUDS BELOW 12,000 FEET WITH NO
       SIGNIFICANT WEATHER AND/OR OBSTRUCTIONS TO VISIBILITY.
       CURRENT SKY AND/OR WEATHER CONDITIONS ARE NOT AVAILABLE FOR
       CHILLICOTHE AND FARMINGTON.

MOZ001>031-035>038-043-044-053-054-020500-
...NORTHERN AND WESTERN MISSOURI...

CITY           SKY/WX    TMP DP  RH WIND       PRES   REMARKS
KANSAS CTY INT PTCLDY    29  20  69 W3        30.46R
KANSAS C DTWN  CLEAR     26  21  81 CALM      30.47R
LEE`S SUMMIT   PTCLDY    27  19  72 CALM      30.46R
ST JOSEPH      MOCLDY    27  22  81 SE3       30.47R
CHILLICOTHE      N/A     25  20  81 VRB3      30.48R
KIRKSVILLE     MOCLDY    22  18  85 W5        30.47R WCI  16

$$
MOZ066>068-077>081-088>096-101>105-020500-
...SOUTHWEST MISSOURI...

CITY           SKY/WX    TMP DP  RH WIND       PRES   REMARKS
SPRINGFIELD    CLOUDY    28  22  78 N9        30.43R WCI  19
JOPLIN         PTCLDY    25  20  81 NE5       30.47R WCI  19

$$
MOZ032>034-039>042-045>050-055>058-069>072-020500-
...CENTRAL MISSOURI...

CITY           SKY/WX    TMP DP  RH WIND       PRES   REMARKS
COLUMBIA       PTCLDY    22  18  85 W3        30.47R
JEFFERSON CITY PTCLDY    22  19  89 CALM      30.50R
ROLLA          MOCLDY    22  18  85 NW3       30.44R
SEDALIA        PTCLDY    23  18  81 SW5       30.48R WCI  17
OSAGE BEACH    PTCLDY    21  18  86 N3        30.48R

$$
MOZ051-052-059>065-020500-
...EAST CENTRAL MISSOURI...

CITY           SKY/WX    TMP DP  RH WIND       PRES   REMARKS
ST LOUIS INTL  PTCLDY    25  19  78 CALM      30.47R
SPIRIT OF STL  PTCLDY    17  14  88 CALM      30.48R
ST CHARLES     MOCLDY    22  19  89 NW3       30.48R

$$
MOZ072>076-082>087-097>100-106>115-020500-
...SOUTH CENTRAL AND SOUTHEAST MISSOURI...

CITY           SKY/WX    TMP DP  RH WIND       PRES   REMARKS
CAPE GIRARDEAU PTCLDY    33  27  78 N15       30.44R WCI  23
FARMINGTON     CLOUDY    28  21  74 N7        30.47R WCI  21
POPLAR BLUFF   CLOUDY    35  29  78 N10       30.43R WCI  27
WEST PLAINS    CLOUDY    31  24  75 N10       30.42R WCI  22

$$


USA.gov is the U.S. government's official web portal to all federal, state and local government web resources and services.